www.pogodaiklimat.ru

Погода и климат >> Архив погоды >> Индия >> Бихар >> Патна


ПОГОДА в Патне

  • Прогноз погоды в Патне
  • Монитор погоды в Патне

АРХИВ ПОГОДЫ в Патне

Время (UTC), дата Ветер
(напр.,м/с)
 
Видим.   Явления Облачность Т
(С)
Тd
(С)
f
(%)
Тe
(С)
Тes
(С)
Комфортность P
(гПа)
Po
(гПа)
Тmin
(С)
Tmax
(С)
R
(мм)
R24
(мм)
S
(см)
18 10.07 Ю 2 2000 м дымка {дождь} 9/6 450 м
[Sc diur, vesp Ac trans]
+27.2 +25.5 90 +40 +40 очень
душно
997.8 991.0 12
21 10.07 Ю 1 2000 м слаб. дождь 10/6 240 м
[Cb cap As op]
+26.4 +25.8 97 +39 +39 очень
душно
994.4 987.6 26
00 11.07 З 2 2000 м слаб. дождь 10/6 240 м
[Cb cap As op]
+26.2 +25.6 97 +39 +39 очень
душно
994.8 988.0 33
03 11.07 ЮЗ 8 2000 м слаб. дождь 10/6 240 м
[Cb cap As op]
+25.8 +24.6 93 +36 +36 очень
душно
996.9 990.1 +25.2 36
06 11.07 ЮЗ 5 2000 м слаб. дождь 10/6 240 м
[Cb cap As op]
+26.4 +25.8 97 +39 +40 очень
душно
997.2 990.4 8
09 11.07 ЮЗ 5 2000 м слаб. дождь 10/6 300 м
[Cb cap As op]
+28.2 +25.9 87 +42 +43 опасность
перегрева
996.6 989.8 9
12 11.07 ЮЗ 4 2000 м слаб. дождь 10/6 300 м
[Cb cap As op]
+28.0 +26.3 91 +43 +43 опасность
перегрева
997.1 990.3 +28.6 9
15 11.07 З 1 2000 м слаб. дождь 10/6 300 м
[Cb cap As op]
+27.8 +26.4 92 +42 +42 опасность
перегрева
999.3 992.5 9
18 11.07 Ю 1 2000 м слаб. дождь 10/6 300 м
[Cb cap As op]
+27.6 +26.2 92 +42 +42 опасность
перегрева
998.8 992.0 10
21 11.07 Ю 1 2000 м слаб. дождь 10/6 300 м
[Cb cap As op]
+27.4 +26.3 94 +42 +42 опасность
перегрева
996.6 989.8 17
00 12.07 С 3 1000 м слаб. дождь 10/6 300 м
[Cb cap As op]
+26.8 +25.4 92 +39 +39 очень
душно
999.3 992.5 20
03 12.07 ЮЗ 3 2000 м слаб. дождь 10/6 300 м
[Cb cap As op]
+27.2 +26.9 98 +42 +43 опасность
перегрева
1000.7 993.9 +25.2 5
06 12.07 Ю 2 2000 м дымка {дождь} 9/5 450 м
[Sc As op]
+28.4 +25.6 85 +42 +46 опасность
перегрева
1000.1 993.3 0.0
09 12.07 штиль 0 4000 м дымка 10/5 450 м
[Sc As op]
+30.2 +27.7 87 +49 +51 опасность
перегрева
1000.1 993.4 0.0
12 12.07 штиль 0 2000 м дымка 9/5 450 м
[Sc As op]
+30.6 +27.6 84 +49 +50 опасность
перегрева
998.6 991.9 +31.0 0.0
15 12.07 З 3 2000 м гроза, ливневой дождь 10/6 300 м
[Cb cap As op]
+28.4 +27.3 94 +45 +45 опасность
перегрева
1000.6 993.8 3
18 12.07 Ю 1 2000 м гроза, ливневой дождь 10/6 300 м
[Cb cap As op]
+27.4 +27.1 98 +43 +43 опасность
перегрева
999.8 993.0 19
21 12.07 З 2 2000 м гроза, ливневой дождь 10/6 300 м
[Cb cap As op]
+25.4 +25.1 98 +36 +36 очень
душно
999.1 992.3 28
00 13.07 штиль 0 2000 м слаб. дождь {гроза} 10/6 300 м
[Cb cap As op]
+25.2 +24.9 98 +36 +36 очень
душно
999.6 992.8 30
03 13.07 штиль 0 2000 м слаб. морось {дождь} 10/5 450 м
[Sc As op]
+26.6 +25.7 95 +39 +41 очень
душно
1000.7 993.9 +24.6 30
06 13.07 ЮЗ 2 4000 м дымка {дождь} 9/5 450 м
[Sc As op]
+32.4 +26.9 73 +50 +55 опасность
перегрева
1000.0 993.3 0.2
09 13.07 СЗ 2 4000 м мгла 9/5 450 м
[Sc As op]
+32.4 +26.1 69 +48 +51 опасность
перегрева
998.9 992.2 0.2
12 13.07 С 1 4000 м мгла 9/5 450 м
[Sc As op]
+31.8 +27.1 76 +50 +50 опасность
перегрева
997.4 990.7 +32.6 0.2
15 13.07 З 1 2000 м дымка 9/6 300 м
[Cb calv Ac trans]
+30.4 +27.4 84 +49 +49 опасность
перегрева
998.4 991.7 0.2
18 13.07 Ю 2 2000 м слаб. дождь 10/6 300 м
[Cb cap As op]
+25.2 +24.0 93 +35 +35 очень
душно
1000.2 993.3 8
21 13.07 штиль 0 2000 м слаб. дождь 10/6 300 м
[Cb cap As op]
+24.2 +23.0 93 +32 +32 очень
душно
998.0 991.1 14
00 14.07 З 1 2000 м слаб. дождь 10/6 300 м
[Cb cap As op]
+24.6 +23.7 95 +33 +33 очень
душно
998.3 991.4 14
03 14.07 З 1 2000 м дымка 9/6 450 м
[Sc Ac trans]
+26.8 +24.5 87 +38 +40 очень
душно
999.5 992.7 +23.2 14
06 14.07 З 3 4000 м мгла 8/5 540 м
[Sc diur, vesp Ac trans]
+32.4 +26.0 69 +48 +54 опасность
перегрева
998.9 992.2
09 14.07 ЮЗ 3 4000 м мгла 8/6 540 м
[Sc diur, vesp Ac trans]
+33.4 +26.5 67 +50 +53 опасность
перегрева
997.0 990.4
12 14.07 ЮЗ 3 4000 м мгла 8/6 540 м
[Sc diur, vesp Ac trans]
+33.2 +26.6 68 +50 +50 опасность
перегрева
995.7 989.1 +34.4
15 14.07 З 1 4000 м мгла 8/5 540 м
[Cb calv Ac trans]
+31.6 +27.5 79 +51 +51 опасность
перегрева
996.9 990.2
18 14.07 штиль 0 4000 м мгла 8/5 540 м
[Cb calv Ac trans]
+30.6 +27.9 86 +51 +51 опасность
перегрева
996.8 990.1
21 14.07 штиль 0 4000 м мгла 8/5 540 м
[Cb calv Ac trans]
+30.0 +28.1 90 +50 +50 опасность
перегрева
995.8 989.1
00 15.07 штиль 0 4000 м мгла 8/5 540 м
[Sc Ac trans]
+29.4 +27.8 91 +48 +48 опасность
перегрева
995.3 988.6
03 15.07 З 3 4000 м мгла 6/0
[Ac trans Ci fib]
+31.0 +25.4 72 +45 +52 опасность
перегрева
998.1 991.4 +28.2
06 15.07 З 4 4000 м мгла 6/0
[Ac trans Ci fib]
+35.2 +25.7 58 +50 +61 опасность
перегрева
998.2 991.6
09 15.07 З 5 4000 м мгла 8/5 540 м
[Sc Ac trans]
+35.6 +25.2 55 +49 +52 опасность
перегрева
997.7 991.1
12 15.07 З 4 4000 м мгла 8/4 600 м
[Sc Ac trans]
+34.6 +25.5 59 +49 +49 опасность
перегрева
996.2 989.6 +36.6
15 15.07 штиль 0 4000 м мгла 8/4 600 м
[Sc Ac trans]
+31.2 +27.3 80 +50 +50 опасность
перегрева
998.0 991.3
18 15.07 штиль 0 4000 м мгла 10/4 600 м
[Sc Ac trans]
+30.2 +27.7 87 +49 +49 опасность
перегрева
999.3 992.6
21 15.07 В 1 2000 м мгла 8/4 600 м
[Sc Ac trans]
+30.0 +26.4 81 +46 +46 опасность
перегрева
998.8 992.1
00 16.07 С 2 2000 м мгла 9/5 540 м
[Sc Ac trans]
+28.0 +24.9 83 +40 +40 очень
душно
999.9 993.1
03 16.07 СВ 2 2000 м мгла 8/5 540 м
[Sc diur, vesp Ac trans]
+29.8 +25.0 75 +43 +46 опасность
перегрева
1001.6 994.8 +27.8 18
06 16.07 Ю 2 4000 м мгла 6/3 540 м
[Sc Ac trans]
+34.0 +25.3 61 +48 +60 опасность
перегрева
1001.7 995.0
09 16.07 З 1 4000 м мгла 6/5 600 м
[Sc diur, vesp Ac trans]
+36.0 +26.3 58 +53 +60 опасность
перегрева
1000.1 993.5
12 16.07 З 1 4000 м мгла 6/5 600 м
[Sc diur, vesp Ac trans]
+35.8 +25.5 55 +50 +51 опасность
перегрева
998.2 991.6 +36.8
15 16.07 СЗ 2 4000 м мгла 5/3 600 м
[Sc Ac trans]
+32.4 +25.4 67 +47 +47 опасность
перегрева
1000.8 994.1
18 16.07 штиль 0 4000 м мгла 5/3 600 м
[Sc Ac trans]
+30.6 +26.1 77 +46 +46 опасность
перегрева
1001.6 994.9
21 16.07 штиль 0 4000 м мгла 5/3 600 м
[Sc Ac trans]
+30.0 +26.1 80 +45 +45 опасность
перегрева
999.9 993.2
00 17.07 штиль 0 2000 м мгла 5/3 540 м
[Sc Ac trans Ci fib]
+28.6 +26.4 88 +44 +44 опасность
перегрева
1000.7 993.9
03 17.07 штиль 0 4000 м мгла 3/0
[Ac trans]
+32.2 +25.8 69 +47 +59 опасность
перегрева
1001.9 995.2 +28.0
06 17.07 В 1 4000 м мгла 8/5 540 м
[Sc diur, vesp Ac trans]
+33.0 +25.3 64 +47 +56 опасность
перегрева
1001.4 994.7
09 17.07 С 1 4000 м мгла 8/5 540 м
[Sc diur, vesp Ac trans]
+35.6 +25.9 57 +51 +56 опасность
перегрева
999.3 992.7
12 17.07 С 2 4000 м мгла 8/6 540 м
[Sc diur, vesp Ac trans]
+35.8 +25.5 55 +50 +50 опасность
перегрева
998.0 991.4 +37.2
15 17.07 ЮВ 3 4000 м мгла 6/3 540 м
[Sc Ac trans]
+32.0 +27.0 75 +50 +50 опасность
перегрева
1000.0 993.3

 

Местоположение метеостанции Патна (Бихар, Индия): широта 25.60 долгота 85.10 высота над уровнем моря 60 м.

В архиве по умолчанию представлена погода в Патне за последнюю неделю. Архивные данные за месяц целиком и за предыдущие месяцы, начиная с января 2011 года, Вы можете получить, выбрав интересующий диапазон дат из раскрывающегося списка и нажав кнопку "Ввод!".


*Определитесь, кто Вы:
робот инопланетянин человек

Внимание! Время в таблицах - всемирное. Для получения местного времени необходимо прибавить поправку, которая равна 5.5 ч.

Смотрите также архив погоды в соседних городах и на ближайших метеорологических станциях:

Погода в Чхапре (Бихар, Индия) (42 км)
Погода в Гае (Бихар, Индия) (96 км)
Погода в Дехри (Бихар, Индия) (120 км)
Погода в Гхазипуре (Уттар-Прадеш, Индия) (157 км)
Погода в Симаре (Непал) (174 км)
Погода в Бхагалпуре (Бихар, Индия) (190 км)
Погода в Далтонгандже (Джаркханд, Индия) (201 км)
Погода в Варанаси (Уттар-Прадеш, Индия) (212 км)
Погода в Горакпуре (Уттар-Прадеш, Индия) (215 км)
Погода в Варанаси аэропорту (Уттар-Прадеш, Индия) (225 км)

Пояснения к столбцам:

Ветер - указаны скорость ветра в м/с - средняя за 10 мин, порывы в срок и между сроками (в фигурных скобках) и направление, откуда дует ветер: С - северный, СВ - северо-восточный, В - восточный, ЮВ - юго-восточный, Ю - южный, ЮЗ - юго-западный, З - западный, СЗ - северо-западный.
Видимость - горизонтальная дальность видимости в метрах или километрах. При видимости от 1 до 10 км при отсутствии осадков обычно наблюдается дымка, при ухудшении видимости до 1 км и менее - туман. В сухую погоду видимость может ухудшаться дымом, пылью или мглою.
Явления - указаны атмосферные явления, наблюдавшиеся в срок или в последний час перед сроком; фигурными скобками обозначены явления, наблюдавшиеся между сроками (за 1-3 часа до срока); квадратными скобками обозначены град или гололедные отложения с указанием их диаметра в мм.
Облачность - указаны через наклонную черту общая и нижняя облачность в баллах и высота нижней границы облаков в метрах; квадратными скобками обозначены формы облаков: Ci - перистые, Cs - перисто-слоистые, Cc - перисто-кучевые, Ac - высококучевые, As - высокослоистые, Sc - слоисто-кучевые, Ns - слоисто-дождевые, Cu - кучевые, Cb - кучево-дождевые. Подробнее классификацию облаков см. в Атласе облаков (PDF).
T - Температура воздуха - температура, измеренная на высоте 2 м над землей.
Td - Температура точки росы - температура, при понижении до которой содержащийся в воздухе водяной пар достигнет насыщения.
f - Относительная влажность воздуха - влажноcть воздуха, измеренная на высоте 2 м над землей.
Te - Эффективная температура - температура, которую ощущает одетый по сезону человек в тени. Характеристика душности погоды. При расчете учитывается влияние влажности воздуха и скорости ветра на теплоощущения человека.
Tes - Эффективная температура на солнце - температура, которую ощущает человек, с поправкой на солнечный нагрев. Характеристика знойности погоды. Зависит от высоты солнца над горизонтом, облачности и скорости ветра. Ночью, в пасмурную погоду, а также при ветре 12 м/с и более поправка равна нулю.
P - Атмосферное давление - приведенное к уровню моря атмосферное давление.
Po - Атмосферное давление - измеренное на уровне метеостанции атмосферное давление.
Tmin - Минимальная температура - минимум температуры воздуха на высоте 2 м над землей.
Tmax - Максимальная температура - максимум температуры воздуха на высоте 2 м над землей.
R - Количество осадков - Количество выпавших осадков за период времени, мм. При наведении курсора мыши на число - период времени, за который выпало указанное количество осадков.
R24 - Количество осадков - Количество выпавших осадков за 24 часа, мм.
S - Снежный покров - Высота снежного покрова, см. При наведении курсора мыши на число - состояние снежного покрова и степень покрытия местности в баллах.